Time,TemperatureF,DewpointF,PressureIn,WindDirection,WindDirectionDegrees,WindSpeedMPH,WindSpeedGustMPH,Humidity,HourlyPrecipIn,Conditions,Clouds,dailyrainin,SoftwareType,DateUTC
2013-09-30 00:12:00,60.8,57.0,30.09,SE,141,0.0,2.0,87,0.00,,,0.00,weatherlink.com 1.10,2013-09-30 04:12:00,
2013-09-30 00:27:00,60.4,57.0,30.08,SSE,162,2.0,2.0,89,0.00,,,0.00,weatherlink.com 1.10,2013-09-30 04:27:00,
2013-09-30 00:42:00,60.3,57.0,30.07,South,183,2.0,6.0,88,0.00,,,0.00,weatherlink.com 1.10,2013-09-30 04:42:00,
2013-09-30 00:57:00,60.5,56.0,30.06,SSE,160,4.0,6.0,86,0.00,,,0.00,weatherlink.com 1.10,2013-09-30 04:57:00,
2013-09-30 01:12:00,60.5,56.0,30.06,SSW,211,0.0,4.0,86,0.00,,,0.00,weatherlink.com 1.10,2013-09-30 05:12:00,
2013-09-30 01:27:00,60.1,56.0,30.07,SE,135,2.0,3.0,87,0.00,,,0.00,weatherlink.com 1.10,2013-09-30 05:27:00,
2013-09-30 01:42:00,59.8,56.0,30.07,SSE,167,3.0,3.0,88,0.00,,,0.00,weatherlink.com 1.10,2013-09-30 05:42:00,
2013-09-30 01:57:00,59.3,56.0,30.07,SSW,210,0.0,2.0,89,0.00,,,0.00,weatherlink.com 1.10,2013-09-30 05:57:00,
2013-09-30 02:12:00,58.9,56.0,30.07,SW,221,0.0,1.0,91,0.00,,,0.00,weatherlink.com 1.10,2013-09-30 06:12:00,
2013-09-30 02:27:00,58.7,56.0,30.06,South,176,1.0,3.0,92,0.00,,,0.00,weatherlink.com 1.10,2013-09-30 06:27:00,
2013-09-30 02:42:00,58.6,56.0,30.05,SSE,166,0.0,7.0,92,0.00,,,0.00,weatherlink.com 1.10,2013-09-30 06:42:00,
2013-09-30 02:57:00,58.1,56.0,30.05,SSW,210,0.0,2.0,92,0.00,,,0.00,weatherlink.com 1.10,2013-09-30 06:57:00,
2013-09-30 03:12:00,57.2,55.0,30.05,SE,135,0.0,1.0,93,0.00,,,0.00,weatherlink.com 1.10,2013-09-30 07:12:00,
2013-09-30 03:27:00,56.2,55.0,30.05,SSW,207,0.0,1.0,94,0.00,,,0.00,weatherlink.com 1.10,2013-09-30 07:27:00,
2013-09-30 03:42:00,55.8,54.0,30.05,SSW,207,0.0,1.0,95,0.00,,,0.00,weatherlink.com 1.10,2013-09-30 07:42:00,
2013-09-30 03:57:00,55.3,54.0,30.05,NNW,344,2.0,2.0,96,0.00,,,0.00,weatherlink.com 1.10,2013-09-30 07:57:00,
2013-09-30 04:12:00,55.6,55.0,30.06,NE,39,1.0,2.0,96,0.00,,,0.00,weatherlink.com 1.10,2013-09-30 08:12:00,
2013-09-30 04:27:00,55.0,54.0,30.06,SW,221,0.0,1.0,95,0.00,,,0.00,weatherlink.com 1.10,2013-09-30 08:27:00,
2013-09-30 04:42:00,54.8,54.0,30.06,SW,221,0.0,1.0,96,0.00,,,0.00,weatherlink.com 1.10,2013-09-30 08:42:00,
2013-09-30 04:57:00,54.8,54.0,30.07,SW,221,0.0,0.0,96,0.00,,,0.00,weatherlink.com 1.10,2013-09-30 08:57:00,
2013-09-30 05:12:00,54.6,54.0,30.07,South,177,0.0,3.0,96,0.00,,,0.00,weatherlink.com 1.10,2013-09-30 09:12:00,
2013-09-30 05:27:00,54.6,54.0,30.07,SSE,159,0.0,3.0,96,0.00,,,0.00,weatherlink.com 1.10,2013-09-30 09:27:00,
2013-09-30 05:42:00,55.0,54.0,30.07,SSE,150,0.0,0.0,96,0.00,,,0.00,weatherlink.com 1.10,2013-09-30 09:42:00,
2013-09-30 05:57:00,55.1,54.0,30.08,SSW,203,0.0,1.0,96,0.00,,,0.00,weatherlink.com 1.10,2013-09-30 09:57:00,
2013-09-30 06:12:00,55.2,54.0,30.08,SSW,203,0.0,1.0,96,0.00,,,0.00,weatherlink.com 1.10,2013-09-30 10:12:00,
2013-09-30 06:27:00,55.4,54.0,30.09,SW,214,0.0,1.0,96,0.00,,,0.00,weatherlink.com 1.10,2013-09-30 10:27:00,
2013-09-30 06:42:00,55.5,54.0,30.09,SSW,213,0.0,1.0,96,0.00,,,0.00,weatherlink.com 1.10,2013-09-30 10:42:00,
2013-09-30 06:57:00,55.6,55.0,30.09,SSW,211,0.0,2.0,96,0.00,,,0.00,weatherlink.com 1.10,2013-09-30 10:57:00,
2013-09-30 07:13:00,55.7,55.0,30.09,South,191,0.0,3.0,96,0.00,,,0.00,weatherlink.com 1.10,2013-09-30 11:13:00,
2013-09-30 07:28:00,55.7,55.0,30.10,SE,142,0.0,2.0,96,0.00,,,0.00,weatherlink.com 1.10,2013-09-30 11:28:00,
2013-09-30 07:43:00,55.8,55.0,30.11,SE,124,0.0,2.0,96,0.00,,,0.00,weatherlink.com 1.10,2013-09-30 11:43:00,
2013-09-30 07:58:00,55.7,54.0,30.11,SSE,155,2.0,2.0,95,0.00,,,0.00,weatherlink.com 1.10,2013-09-30 11:58:00,
2013-09-30 08:13:00,55.8,54.0,30.11,SE,127,2.0,4.0,95,0.00,,,0.00,weatherlink.com 1.10,2013-09-30 12:13:00,
2013-09-30 08:28:00,56.0,54.0,30.11,South,188,1.0,4.0,94,0.00,,,0.00,weatherlink.com 1.10,2013-09-30 12:28:00,
2013-09-30 08:43:00,56.4,55.0,30.11,SSE,153,3.0,4.0,94,0.00,,,0.00,weatherlink.com 1.10,2013-09-30 12:43:00,
2013-09-30 08:58:00,56.8,55.0,30.11,SE,135,5.0,6.0,92,0.00,,,0.00,weatherlink.com 1.10,2013-09-30 12:58:00,
2013-09-30 09:13:00,58.5,55.0,30.11,SSE,163,5.0,7.0,89,0.00,,,0.00,weatherlink.com 1.10,2013-09-30 13:13:00,
2013-09-30 09:28:00,59.2,56.0,30.11,South,190,3.0,4.0,89,0.00,,,0.00,weatherlink.com 1.10,2013-09-30 13:28:00,
2013-09-30 09:43:00,59.3,56.0,30.11,SSW,195,3.0,7.0,88,0.00,,,0.00,weatherlink.com 1.10,2013-09-30 13:43:00,
2013-09-30 09:58:00,60.9,57.0,30.11,SSE,168,2.0,4.0,86,0.00,,,0.00,weatherlink.com 1.10,2013-09-30 13:58:00,
2013-09-30 10:13:00,62.5,57.0,30.11,SSE,158,0.0,6.0,82,0.00,,,0.00,weatherlink.com 1.10,2013-09-30 14:13:00,
2013-09-30 10:28:00,63.7,57.0,30.11,SSE,159,3.0,7.0,79,0.00,,,0.00,weatherlink.com 1.10,2013-09-30 14:28:00,
2013-09-30 10:43:00,64.1,57.0,30.10,SSW,207,2.0,8.0,78,0.00,,,0.00,weatherlink.com 1.10,2013-09-30 14:43:00,
2013-09-30 10:58:00,65.4,57.0,30.10,SW,217,4.0,5.0,75,0.00,,,0.00,weatherlink.com 1.10,2013-09-30 14:58:00,
2013-09-30 11:13:00,65.7,58.0,30.10,South,180,2.0,6.0,75,0.00,,,0.00,weatherlink.com 1.10,2013-09-30 15:13:00,
2013-09-30 11:28:00,67.6,58.0,30.09,South,176,3.0,5.0,71,0.00,,,0.00,weatherlink.com 1.10,2013-09-30 15:28:00,
2013-09-30 11:43:00,67.5,57.0,30.09,ESE,119,0.0,4.0,70,0.00,,,0.00,weatherlink.com 1.10,2013-09-30 15:43:00,
2013-09-30 11:58:00,71.4,58.0,30.08,WSW,255,0.0,2.0,62,0.00,,,0.00,weatherlink.com 1.10,2013-09-30 15:58:00,
2013-09-30 12:13:00,70.4,57.0,30.08,SW,221,0.0,5.0,63,0.00,,,0.00,weatherlink.com 1.10,2013-09-30 16:13:00,
2013-09-30 12:28:00,72.5,57.0,30.07,SW,215,2.0,3.0,59,0.00,,,0.00,weatherlink.com 1.10,2013-09-30 16:28:00,
2013-09-30 12:43:00,71.7,56.0,30.07,SW,215,2.0,4.0,59,0.00,,,0.00,weatherlink.com 1.10,2013-09-30 16:43:00,
2013-09-30 12:58:00,72.3,57.0,30.06,WSW,252,1.0,5.0,59,0.00,,,0.00,weatherlink.com 1.10,2013-09-30 16:58:00,
2013-09-30 13:13:00,73.6,57.0,30.06,South,184,1.0,4.0,57,0.00,,,0.00,weatherlink.com 1.10,2013-09-30 17:13:00,
2013-09-30 13:28:00,74.0,57.0,30.05,SW,225,1.0,7.0,55,0.00,,,0.00,weatherlink.com 1.10,2013-09-30 17:28:00,
2013-09-30 13:43:00,74.3,56.0,30.05,SE,138,2.0,6.0,53,0.00,,,0.00,weatherlink.com 1.10,2013-09-30 17:43:00,
2013-09-30 13:58:00,73.1,56.0,30.04,ENE,78,2.0,4.0,56,0.00,,,0.00,weatherlink.com 1.10,2013-09-30 17:58:00,
2013-09-30 14:13:00,74.4,57.0,30.03,SSW,208,0.0,2.0,54,0.00,,,0.00,weatherlink.com 1.10,2013-09-30 18:13:00,
2013-09-30 14:28:00,74.6,56.0,30.02,SSE,148,5.0,5.0,52,0.00,,,0.00,weatherlink.com 1.10,2013-09-30 18:28:00,
2013-09-30 14:43:00,75.3,57.0,30.02,SSE,163,1.0,12.0,53,0.00,,,0.00,weatherlink.com 1.10,2013-09-30 18:43:00,
2013-09-30 14:58:00,75.6,57.0,30.01,SSE,159,5.0,12.0,53,0.00,,,0.00,weatherlink.com 1.10,2013-09-30 18:58:00,
2013-09-30 15:13:00,73.3,58.0,30.01,SSE,154,6.0,10.0,59,0.00,,,0.00,weatherlink.com 1.10,2013-09-30 19:13:00,
2013-09-30 15:28:00,73.4,59.0,30.01,SSE,155,7.0,12.0,60,0.00,,,0.00,weatherlink.com 1.10,2013-09-30 19:28:00,
2013-09-30 15:44:00,73.9,59.0,30.00,South,183,10.0,12.0,59,0.00,,,0.00,weatherlink.com 1.10,2013-09-30 19:44:00,
2013-09-30 15:59:00,73.5,58.0,29.99,ENE,70,1.0,10.0,59,0.00,,,0.00,weatherlink.com 1.10,2013-09-30 19:59:00,
2013-09-30 16:14:00,73.5,57.0,29.99,SSE,165,5.0,10.0,57,0.00,,,0.00,weatherlink.com 1.10,2013-09-30 20:14:00,
2013-09-30 16:29:00,73.6,58.0,30.00,SE,139,4.0,10.0,58,0.00,,,0.00,weatherlink.com 1.10,2013-09-30 20:29:00,
2013-09-30 16:44:00,72.9,59.0,30.00,SSE,165,1.0,8.0,61,0.00,,,0.00,weatherlink.com 1.10,2013-09-30 20:44:00,
2013-09-30 16:59:00,74.2,59.0,29.99,WSW,243,4.0,6.0,59,0.00,,,0.00,weatherlink.com 1.10,2013-09-30 20:59:00,
2013-09-30 17:14:00,71.5,59.0,30.00,SE,139,0.0,5.0,64,0.00,,,0.00,weatherlink.com 1.10,2013-09-30 21:14:00,
2013-09-30 17:29:00,70.0,58.0,30.00,ESE,106,0.0,6.0,67,0.00,,,0.00,weatherlink.com 1.10,2013-09-30 21:29:00,
2013-09-30 17:44:00,69.0,59.0,30.00,SE,128,3.0,5.0,70,0.00,,,0.00,weatherlink.com 1.10,2013-09-30 21:44:00,
2013-09-30 17:59:00,68.0,59.0,30.00,SSE,156,2.0,5.0,73,0.00,,,0.00,weatherlink.com 1.10,2013-09-30 21:59:00,
2013-09-30 18:14:00,67.4,59.0,30.01,SSE,150,3.0,3.0,75,0.00,,,0.00,weatherlink.com 1.10,2013-09-30 22:14:00,
2013-09-30 18:29:00,66.8,60.0,30.01,SW,214,0.0,1.0,80,0.00,,,0.00,weatherlink.com 1.10,2013-09-30 22:29:00,
2013-09-30 18:44:00,65.4,61.0,30.02,SW,219,0.0,2.0,84,0.00,,,0.00,weatherlink.com 1.10,2013-09-30 22:44:00,
2013-09-30 18:59:00,65.4,60.0,30.01,SSE,153,1.0,3.0,83,0.00,,,0.00,weatherlink.com 1.10,2013-09-30 22:59:00,
2013-09-30 19:14:00,65.4,60.0,30.02,South,170,0.0,1.0,83,0.00,,,0.00,weatherlink.com 1.10,2013-09-30 23:14:00,
2013-09-30 19:29:00,65.5,59.0,30.02,SE,142,3.0,5.0,79,0.00,,,0.00,weatherlink.com 1.10,2013-09-30 23:29:00,
2013-09-30 19:44:00,65.3,59.0,30.02,SSE,152,4.0,4.0,80,0.00,,,0.00,weatherlink.com 1.10,2013-09-30 23:44:00,
2013-09-30 19:59:00,65.0,59.0,30.03,SSE,158,1.0,6.0,80,0.00,,,0.00,weatherlink.com 1.10,2013-09-30 23:59:00,
2013-09-30 20:14:00,64.7,59.0,30.04,SSE,158,2.0,5.0,81,0.00,,,0.00,weatherlink.com 1.10,2013-10-01 00:14:00,
2013-09-30 20:29:00,64.3,59.0,30.05,SSW,211,1.0,5.0,82,0.00,,,0.00,weatherlink.com 1.10,2013-10-01 00:29:00,
2013-09-30 20:44:00,64.1,59.0,30.05,South,180,1.0,5.0,82,0.00,,,0.00,weatherlink.com 1.10,2013-10-01 00:44:00,
2013-09-30 20:59:00,63.9,59.0,30.05,SSW,212,2.0,5.0,83,0.00,,,0.00,weatherlink.com 1.10,2013-10-01 00:59:00,
2013-09-30 21:14:00,63.8,59.0,30.06,SSW,203,3.0,4.0,83,0.00,,,0.00,weatherlink.com 1.10,2013-10-01 01:14:00,
2013-09-30 21:29:00,63.6,59.0,30.06,SSE,167,0.0,3.0,85,0.00,,,0.00,weatherlink.com 1.10,2013-10-01 01:29:00,
2013-09-30 21:44:00,63.1,60.0,30.07,South,191,1.0,2.0,88,0.00,,,0.00,weatherlink.com 1.10,2013-10-01 01:44:00,
2013-09-30 21:59:00,62.7,59.0,30.07,SSE,148,0.0,2.0,87,0.00,,,0.00,weatherlink.com 1.10,2013-10-01 01:59:00,
2013-09-30 22:14:00,62.8,59.0,30.07,SSE,156,1.0,3.0,88,0.00,,,0.00,weatherlink.com 1.10,2013-10-01 02:14:00,
2013-09-30 22:29:00,62.2,59.0,30.07,South,171,0.0,4.0,89,0.00,,,0.00,weatherlink.com 1.10,2013-10-01 02:29:00,
2013-09-30 22:44:00,62.1,59.0,30.07,WSW,237,0.0,2.0,90,0.00,,,0.00,weatherlink.com 1.10,2013-10-01 02:44:00,
2013-09-30 22:59:00,61.8,59.0,30.08,SW,228,0.0,1.0,90,0.00,,,0.00,weatherlink.com 1.10,2013-10-01 02:59:00,
2013-09-30 23:14:00,61.8,59.0,30.08,NE,55,0.0,4.0,91,0.00,,,0.00,weatherlink.com 1.10,2013-10-01 03:14:00,
2013-09-30 23:29:00,61.3,59.0,30.08,SSW,207,0.0,1.0,91,0.00,,,0.00,weatherlink.com 1.10,2013-10-01 03:29:00,
2013-09-30 23:44:00,60.3,58.0,30.08,NE,47,1.0,3.0,93,0.00,,,0.00,weatherlink.com 1.10,2013-10-01 03:44:00,
2013-09-30 23:59:00,59.5,58.0,30.08,SE,131,0.0,1.0,94,0.00,,,0.00,weatherlink.com 1.10,2013-10-01 03:59:00,